GEFSMA_prec_meanprecacc_144.txt.gz
Total_Precipitation_Accumulation
0.76 0.78 0.73 0.77 0.69 0.67 0.75 0.81 0.81 0.83 0.74 0.62 0.57 0.57 0.64 0.56 0.50 0.55 0.69 0.78 0.99 1.16 1.22 1.11 0.98 0.91 0.89 0.89 1.05 1.13 1.13 1.19 1.18 1.15 1.01 0.96 0.92 0.82 0.63 0.56 0.55 0.50 0.50
0.81 0.86 0.83 0.83 0.79 0.73 0.75 0.90 0.84 0.88 0.87 0.79 0.63 0.59 0.62 0.58 0.53 0.55 0.65 0.89 0.97 0.99 1.20 1.37 1.28 1.13 1.00 0.95 1.00 1.10 1.10 1.13 1.05 1.05 0.99 0.90 0.79 0.68 0.54 0.52 0.51 0.47 0.51
0.77 0.82 0.85 0.82 0.81 0.82 0.82 0.87 0.88 0.93 0.84 0.78 0.70 0.64 0.61 0.54 0.49 0.53 0.57 0.66 0.64 0.68 0.89 1.17 1.36 1.29 1.18 1.13 1.09 1.08 0.99 0.96 0.94 0.97 0.98 0.88 0.78 0.67 0.58 0.54 0.52 0.47 0.43
0.84 0.84 0.90 0.91 0.95 0.99 0.96 0.96 0.99 1.00 0.95 0.91 0.87 0.79 0.63 0.62 0.55 0.57 0.57 0.57 0.61 0.55 0.66 0.78 0.98 1.12 1.24 1.32 1.33 1.21 1.02 0.84 0.77 0.86 0.91 0.87 0.81 0.72 0.63 0.60 0.54 0.51 0.43
0.91 1.03 1.06 1.11 1.09 1.10 1.12 1.08 1.10 1.03 1.01 0.99 0.89 0.84 0.73 0.71 0.66 0.57 0.66 0.67 0.67 0.61 0.62 0.56 0.61 0.67 0.86 1.09 1.23 1.33 1.17 0.93 0.72 0.72 0.74 0.74 0.75 0.78 0.70 0.63 0.53 0.50 0.47
1.22 1.36 1.45 1.40 1.38 1.37 1.35 1.30 1.38 1.27 1.08 1.05 0.98 0.88 0.74 0.69 0.74 0.69 0.72 0.73 0.76 0.74 0.69 0.57 0.49 0.42 0.50 0.70 0.92 1.17 1.26 1.11 0.88 0.73 0.71 0.66 0.65 0.71 0.69 0.65 0.56 0.53 0.53
1.61 1.72 1.65 1.73 1.77 1.62 1.61 1.65 1.71 1.65 1.39 1.24 1.29 1.14 0.87 0.66 0.72 0.72 0.72 0.75 0.82 0.94 0.98 0.83 0.65 0.54 0.45 0.46 0.54 0.85 1.21 1.27 1.17 0.95 0.82 0.78 0.70 0.61 0.58 0.57 0.53 0.53 0.56
1.84 1.88 1.95 2.02 2.05 2.03 1.99 1.88 1.95 2.03 1.77 1.53 1.61 1.86 1.44 1.04 0.73 0.61 0.70 0.73 0.83 1.07 1.15 1.00 0.80 0.66 0.56 0.57 0.39 0.52 0.84 1.18 1.31 1.22 1.01 0.94 0.80 0.62 0.55 0.52 0.48 0.48 0.52
2.08 2.10 2.16 2.21 2.20 2.05 2.04 2.13 2.23 2.53 2.32 1.98 1.80 2.02 1.78 1.45 1.17 0.77 0.71 0.77 0.87 1.05 1.17 1.21 1.08 0.97 0.84 0.76 0.66 0.45 0.46 0.73 1.07 1.30 1.26 1.09 0.91 0.73 0.61 0.55 0.51 0.52 0.51
2.01 2.12 2.13 2.13 2.09 2.02 2.08 2.15 2.18 2.54 2.70 2.39 2.09 1.75 1.53 1.48 1.50 1.19 0.87 0.83 0.91 0.93 1.05 1.13 1.09 1.15 1.11 1.02 0.92 0.63 0.45 0.47 0.77 1.17 1.44 1.43 1.19 0.92 0.72 0.62 0.59 0.57 0.55
1.87 1.91 1.93 2.01 2.04 2.07 2.12 2.27 2.37 2.60 2.62 2.60 2.42 2.24 2.01 1.70 1.35 1.35 1.29 1.07 1.01 0.93 1.02 1.16 1.21 1.28 1.26 1.21 1.23 0.93 0.64 0.43 0.54 0.94 1.36 1.59 1.50 1.26 1.03 0.83 0.72 0.65 0.61
1.85 1.79 1.76 1.82 1.94 2.11 2.16 2.24 2.37 2.60 2.70 2.77 2.68 2.43 2.31 2.12 1.80 1.66 1.41 1.29 1.26 1.09 1.07 1.10 1.15 1.25 1.36 1.38 1.27 1.35 1.03 0.61 0.45 0.68 0.96 1.33 1.59 1.59 1.43 1.25 1.07 0.92 0.82
1.56 1.58 1.66 1.75 1.89 2.01 2.09 2.20 2.33 2.38 2.49 2.72 2.72 2.55 2.34 2.11 2.05 1.93 1.80 1.48 1.31 1.13 1.11 1.11 1.07 1.09 1.09 1.30 1.35 1.44 1.14 0.82 0.57 0.52 0.58 0.70 0.98 1.28 1.49 1.47 1.43 1.37 1.27
1.45 1.39 1.43 1.53 1.76 1.97 2.05 2.14 2.15 2.12 2.17 2.35 2.35 2.41 2.37 2.08 2.02 1.90 1.86 1.92 1.64 1.43 1.24 1.08 0.98 1.01 0.97 1.11 1.32 1.38 1.03 0.90 0.71 0.56 0.52 0.54 0.55 0.68 0.91 1.25 1.45 1.55 1.60
1.24 1.19 1.21 1.25 1.38 1.62 1.88 2.04 1.98 1.90 1.87 2.01 2.07 2.16 2.27 2.28 2.19 2.08 2.03 2.05 1.95 1.70 1.50 1.29 1.08 0.97 0.97 1.00 1.27 1.13 0.99 0.94 0.85 0.69 0.59 0.57 0.51 0.50 0.55 0.68 0.88 1.03 1.22
1.04 1.05 1.04 1.09 1.22 1.33 1.54 1.78 1.88 1.83 1.79 1.85 1.95 2.08 2.20 2.29 2.34 2.15 2.10 2.06 1.89 1.76 1.60 1.32 1.10 1.00 1.06 0.99 1.19 1.10 1.06 1.14 0.94 0.79 0.70 0.64 0.58 0.53 0.52 0.54 0.57 0.58 0.59
0.80 0.83 1.00 1.06 1.14 1.22 1.39 1.65 1.83 1.84 1.76 1.77 1.76 1.84 1.99 2.07 2.30 2.28 2.19 2.08 1.93 1.74 1.58 1.44 1.24 1.05 1.11 1.16 1.18 1.18 1.10 1.03 0.88 0.83 0.72 0.64 0.60 0.58 0.57 0.58 0.59 0.56 0.51
0.55 0.68 0.81 0.86 0.90 0.96 1.14 1.44 1.63 1.67 1.64 1.55 1.54 1.64 1.85 2.02 2.23 2.34 2.31 2.17 2.05 1.90 1.78 1.70 1.53 1.29 1.18 1.22 1.31 1.35 1.29 1.20 1.12 1.08 0.93 0.76 0.68 0.63 0.61 0.59 0.60 0.60 0.54
0.58 0.68 0.78 0.84 0.86 0.92 0.96 1.07 1.23 1.35 1.34 1.28 1.31 1.36 1.42 1.59 1.86 2.06 2.12 2.14 2.17 2.13 2.07 1.91 1.71 1.55 1.38 1.28 1.35 1.37 1.30 1.34 1.24 1.27 1.23 1.05 0.91 0.84 0.76 0.71 0.66 0.64 0.61
0.53 0.60 0.65 0.73 0.81 0.88 0.89 0.91 0.94 1.01 1.02 1.06 1.12 1.18 1.21 1.24 1.43 1.62 1.74 1.95 2.18 2.19 2.16 2.07 1.87 1.66 1.52 1.40 1.45 1.46 1.45 1.42 1.35 1.24 1.23 1.12 1.06 0.97 0.86 0.76 0.69 0.64 0.63
0.43 0.49 0.56 0.60 0.67 0.76 0.85 0.88 0.76 0.73 0.80 0.89 0.93 0.92 0.93 1.00 1.12 1.21 1.28 1.63 1.97 2.14 2.11 2.05 1.92 1.78 1.56 1.45 1.32 1.30 1.44 1.61 1.61 1.54 1.48 1.26 1.12 1.00 0.91 0.84 0.78 0.72 0.67
0.40 0.45 0.46 0.49 0.61 0.66 0.79 0.77 0.60 0.59 0.63 0.73 0.82 0.82 0.72 0.72 0.77 0.84 0.91 1.09 1.36 1.59 1.85 2.00 1.93 1.74 1.56 1.45 1.39 1.40 1.43 1.50 1.56 1.46 1.55 1.59 1.48 1.37 1.24 1.07 1.04 0.98 0.89
0.36 0.39 0.40 0.42 0.48 0.62 0.66 0.52 0.49 0.52 0.60 0.65 0.71 0.77 0.70 0.60 0.68 0.73 0.82 0.89 0.91 0.99 1.25 1.58 1.71 1.67 1.74 1.61 1.55 1.48 1.44 1.47 1.47 1.43 1.54 1.61 1.62 1.54 1.45 1.38 1.40 1.27 1.13
0.42 0.43 0.46 0.47 0.48 0.53 0.51 0.41 0.43 0.46 0.52 0.58 0.66 0.75 0.80 0.72 0.71 0.82 0.83 0.86 0.82 0.77 0.97 0.99 1.17 1.46 1.62 1.69 1.65 1.72 1.87 1.81 1.64 1.49 1.42 1.45 1.41 1.40 1.39 1.38 1.44 1.33 1.21
0.42 0.45 0.49 0.50 0.47 0.45 0.45 0.37 0.39 0.47 0.52 0.57 0.59 0.64 0.71 0.69 0.83 0.91 0.90 1.01 1.00 0.89 1.01 1.07 1.11 1.14 1.26 1.40 1.52 1.59 1.67 1.72 1.69 1.57 1.35 1.22 1.18 1.17 1.21 1.20 1.19 1.21 1.16
0.25 0.33 0.35 0.39 0.43 0.43 0.52 0.41 0.41 0.47 0.56 0.65 0.67 0.65 0.78 0.78 0.83 0.82 0.80 1.01 1.03 0.93 0.85 0.91 0.92 0.91 0.86 0.94 1.14 1.31 1.50 1.58 1.54 1.45 1.21 1.06 1.04 1.07 1.04 0.89 0.81 0.81 0.81

GEFSMA_prec_meanprecacc_150.txt.gz
Total_Precipitation_Accumulation
0.76 0.78 0.73 0.77 0.70 0.68 0.75 0.81 0.81 0.83 0.74 0.62 0.57 0.57 0.64 0.56 0.51 0.55 0.69 0.79 1.00 1.19 1.25 1.17 1.04 0.97 0.95 0.94 1.12 1.23 1.27 1.39 1.39 1.46 1.26 1.15 1.17 1.06 0.75 0.64 0.61 0.57 0.58
0.81 0.86 0.83 0.83 0.79 0.73 0.75 0.91 0.84 0.88 0.87 0.80 0.63 0.60 0.62 0.58 0.54 0.56 0.66 0.89 0.97 1.01 1.23 1.40 1.33 1.19 1.06 1.01 1.06 1.18 1.21 1.29 1.21 1.24 1.20 1.10 1.02 0.92 0.67 0.59 0.57 0.52 0.59
0.77 0.82 0.85 0.82 0.81 0.82 0.82 0.87 0.89 0.94 0.84 0.78 0.70 0.64 0.61 0.55 0.49 0.54 0.58 0.66 0.65 0.69 0.90 1.19 1.39 1.34 1.24 1.19 1.15 1.17 1.15 1.14 1.09 1.10 1.12 1.00 0.89 0.80 0.68 0.62 0.58 0.54 0.51
0.84 0.84 0.90 0.91 0.95 0.99 0.96 0.96 0.99 1.00 0.95 0.92 0.87 0.79 0.64 0.62 0.55 0.57 0.57 0.57 0.61 0.56 0.66 0.79 1.00 1.15 1.29 1.37 1.39 1.33 1.24 1.05 0.93 0.98 1.03 0.97 0.88 0.81 0.72 0.69 0.61 0.58 0.50
0.91 1.03 1.06 1.11 1.09 1.10 1.12 1.08 1.10 1.03 1.01 0.99 0.89 0.85 0.74 0.71 0.67 0.58 0.66 0.67 0.68 0.61 0.63 0.58 0.62 0.69 0.89 1.14 1.30 1.42 1.31 1.15 0.91 0.84 0.85 0.84 0.88 0.91 0.79 0.71 0.60 0.56 0.54
1.22 1.36 1.45 1.40 1.38 1.37 1.35 1.30 1.38 1.27 1.08 1.05 0.98 0.89 0.75 0.70 0.75 0.70 0.72 0.74 0.77 0.75 0.69 0.58 0.50 0.44 0.53 0.74 0.97 1.23 1.35 1.27 1.06 0.88 0.81 0.76 0.79 0.86 0.81 0.73 0.64 0.61 0.60
1.61 1.72 1.65 1.73 1.77 1.62 1.61 1.66 1.71 1.65 1.39 1.25 1.30 1.16 0.89 0.67 0.73 0.73 0.72 0.76 0.83 0.95 0.98 0.84 0.66 0.56 0.48 0.49 0.58 0.89 1.28 1.38 1.31 1.10 0.92 0.87 0.81 0.77 0.77 0.69 0.63 0.62 0.65
1.84 1.88 1.95 2.02 2.05 2.03 1.99 1.88 1.95 2.03 1.77 1.54 1.62 1.86 1.45 1.05 0.74 0.62 0.71 0.74 0.84 1.08 1.16 1.01 0.80 0.68 0.59 0.63 0.43 0.55 0.90 1.30 1.43 1.34 1.11 1.03 0.91 0.78 0.80 0.74 0.62 0.59 0.62
2.08 2.10 2.16 2.22 2.21 2.06 2.04 2.13 2.23 2.53 2.32 1.98 1.80 2.02 1.78 1.45 1.18 0.78 0.72 0.78 0.87 1.05 1.18 1.22 1.09 0.98 0.85 0.80 0.70 0.47 0.52 0.89 1.21 1.44 1.38 1.20 1.03 0.90 0.88 0.83 0.74 0.66 0.62
2.01 2.12 2.13 2.13 2.09 2.02 2.08 2.15 2.18 2.54 2.71 2.40 2.09 1.76 1.53 1.49 1.51 1.21 0.89 0.83 0.92 0.94 1.05 1.14 1.10 1.16 1.12 1.05 0.95 0.65 0.51 0.68 0.97 1.35 1.58 1.55 1.32 1.07 0.91 0.85 0.85 0.78 0.68
1.87 1.91 1.93 2.01 2.04 2.07 2.12 2.27 2.37 2.61 2.62 2.61 2.43 2.24 2.02 1.72 1.37 1.38 1.31 1.07 1.02 0.93 1.03 1.17 1.23 1.30 1.27 1.22 1.26 0.96 0.69 0.58 0.75 1.12 1.51 1.71 1.63 1.40 1.18 1.03 0.96 0.92 0.79
1.85 1.79 1.76 1.82 1.94 2.11 2.17 2.24 2.37 2.60 2.70 2.77 2.68 2.43 2.32 2.14 1.83 1.68 1.43 1.30 1.27 1.10 1.08 1.11 1.16 1.27 1.37 1.40 1.29 1.37 1.06 0.69 0.59 0.83 1.10 1.45 1.70 1.72 1.58 1.44 1.31 1.19 1.07
1.56 1.58 1.66 1.75 1.89 2.01 2.09 2.20 2.33 2.38 2.49 2.72 2.72 2.55 2.34 2.12 2.07 1.96 1.82 1.50 1.32 1.14 1.12 1.12 1.08 1.10 1.10 1.32 1.37 1.45 1.16 0.86 0.65 0.64 0.71 0.81 1.07 1.39 1.63 1.62 1.61 1.60 1.50
1.45 1.39 1.43 1.53 1.76 1.97 2.05 2.14 2.15 2.12 2.17 2.35 2.36 2.42 2.38 2.09 2.03 1.92 1.87 1.94 1.66 1.44 1.26 1.10 0.99 1.02 0.98 1.12 1.33 1.40 1.06 0.94 0.77 0.65 0.63 0.66 0.64 0.76 1.03 1.38 1.60 1.71 1.77
1.24 1.19 1.21 1.25 1.38 1.62 1.88 2.04 1.98 1.90 1.87 2.02 2.07 2.17 2.27 2.28 2.20 2.09 2.04 2.06 1.98 1.73 1.53 1.31 1.09 0.99 0.99 1.02 1.28 1.14 1.02 0.98 0.91 0.76 0.66 0.68 0.62 0.57 0.63 0.79 0.99 1.13 1.32
1.04 1.05 1.04 1.09 1.22 1.33 1.54 1.78 1.88 1.83 1.79 1.85 1.95 2.08 2.21 2.30 2.35 2.16 2.11 2.06 1.90 1.78 1.63 1.35 1.12 1.02 1.07 1.02 1.21 1.12 1.08 1.17 1.00 0.86 0.77 0.72 0.73 0.65 0.62 0.62 0.66 0.67 0.67
0.80 0.83 1.00 1.06 1.14 1.22 1.39 1.65 1.83 1.84 1.76 1.77 1.76 1.84 2.00 2.09 2.31 2.28 2.19 2.08 1.94 1.75 1.61 1.46 1.25 1.06 1.12 1.17 1.21 1.21 1.12 1.06 0.91 0.88 0.77 0.71 0.70 0.73 0.70 0.69 0.68 0.64 0.58
0.55 0.68 0.81 0.86 0.90 0.96 1.14 1.44 1.63 1.67 1.64 1.56 1.55 1.66 1.87 2.03 2.25 2.36 2.32 2.18 2.07 1.91 1.80 1.73 1.55 1.30 1.19 1.23 1.32 1.38 1.32 1.22 1.15 1.12 0.98 0.82 0.74 0.73 0.73 0.71 0.69 0.68 0.62
0.58 0.68 0.78 0.84 0.86 0.92 0.96 1.07 1.23 1.35 1.35 1.29 1.33 1.38 1.43 1.60 1.88 2.08 2.13 2.16 2.18 2.14 2.08 1.93 1.73 1.56 1.40 1.30 1.37 1.39 1.34 1.39 1.28 1.30 1.26 1.09 0.97 0.92 0.86 0.80 0.76 0.72 0.68
0.53 0.60 0.65 0.73 0.81 0.88 0.89 0.91 0.94 1.01 1.03 1.09 1.15 1.20 1.22 1.25 1.45 1.63 1.75 1.97 2.19 2.20 2.17 2.09 1.89 1.67 1.53 1.42 1.46 1.49 1.51 1.48 1.40 1.27 1.25 1.15 1.11 1.04 0.95 0.84 0.76 0.71 0.70
0.43 0.49 0.56 0.60 0.67 0.76 0.85 0.88 0.76 0.73 0.80 0.91 0.95 0.93 0.94 1.02 1.13 1.22 1.29 1.64 1.99 2.15 2.13 2.07 1.94 1.79 1.57 1.47 1.34 1.32 1.48 1.68 1.66 1.59 1.51 1.28 1.15 1.04 0.96 0.93 0.85 0.78 0.74
0.40 0.45 0.46 0.49 0.61 0.66 0.79 0.77 0.61 0.59 0.63 0.74 0.83 0.82 0.73 0.73 0.78 0.84 0.92 1.10 1.37 1.61 1.88 2.03 1.95 1.76 1.58 1.47 1.41 1.42 1.46 1.56 1.63 1.53 1.60 1.63 1.51 1.40 1.27 1.12 1.10 1.04 0.94
0.36 0.39 0.40 0.42 0.48 0.62 0.66 0.52 0.49 0.52 0.60 0.65 0.71 0.77 0.70 0.61 0.68 0.73 0.83 0.90 0.92 0.99 1.27 1.60 1.72 1.69 1.76 1.62 1.57 1.50 1.47 1.51 1.53 1.50 1.61 1.67 1.67 1.58 1.49 1.42 1.45 1.32 1.17
0.42 0.43 0.46 0.47 0.48 0.53 0.51 0.41 0.43 0.47 0.53 0.58 0.66 0.75 0.80 0.72 0.72 0.83 0.84 0.86 0.83 0.78 0.98 1.00 1.17 1.46 1.64 1.72 1.68 1.75 1.90 1.85 1.69 1.56 1.48 1.52 1.46 1.44 1.42 1.41 1.48 1.37 1.25
0.42 0.45 0.49 0.50 0.47 0.45 0.45 0.37 0.39 0.47 0.52 0.57 0.59 0.65 0.72 0.70 0.83 0.91 0.91 1.03 1.01 0.90 1.02 1.08 1.11 1.15 1.27 1.42 1.55 1.62 1.70 1.76 1.73 1.63 1.42 1.28 1.24 1.22 1.25 1.24 1.23 1.25 1.21
0.25 0.33 0.35 0.39 0.43 0.43 0.52 0.41 0.41 0.47 0.56 0.66 0.67 0.65 0.78 0.78 0.84 0.83 0.81 1.03 1.05 0.94 0.86 0.91 0.93 0.91 0.87 0.96 1.17 1.33 1.53 1.61 1.59 1.50 1.28 1.13 1.10 1.12 1.10 0.95 0.85 0.85 0.85

GEFSMA_prec_meanprecacc_156.txt.gz
Total_Precipitation_Accumulation
0.76 0.78 0.73 0.78 0.70 0.68 0.75 0.82 0.81 0.83 0.74 0.62 0.57 0.57 0.64 0.56 0.51 0.56 0.70 0.79 1.01 1.20 1.28 1.19 1.05 0.97 0.96 0.95 1.15 1.28 1.41 1.68 1.64 1.61 1.37 1.24 1.28 1.19 0.86 0.75 0.72 0.65 0.64
0.81 0.86 0.83 0.83 0.79 0.73 0.76 0.91 0.85 0.89 0.87 0.80 0.63 0.60 0.63 0.59 0.54 0.57 0.67 0.90 0.98 1.01 1.25 1.42 1.34 1.20 1.08 1.03 1.08 1.23 1.35 1.54 1.43 1.44 1.38 1.24 1.20 1.11 0.79 0.69 0.67 0.60 0.65
0.77 0.82 0.85 0.82 0.81 0.82 0.82 0.87 0.89 0.94 0.84 0.78 0.70 0.65 0.61 0.56 0.50 0.57 0.59 0.67 0.65 0.70 0.91 1.21 1.41 1.35 1.25 1.22 1.18 1.21 1.23 1.28 1.26 1.31 1.33 1.17 1.02 0.96 0.85 0.71 0.67 0.61 0.57
0.84 0.84 0.90 0.91 0.95 0.99 0.96 0.96 0.99 1.01 0.95 0.92 0.87 0.81 0.64 0.63 0.57 0.60 0.59 0.58 0.62 0.57 0.67 0.80 1.02 1.17 1.31 1.40 1.44 1.37 1.28 1.13 1.10 1.15 1.21 1.13 1.00 0.92 0.84 0.80 0.70 0.64 0.56
0.91 1.03 1.07 1.12 1.09 1.10 1.12 1.09 1.10 1.03 1.02 1.00 0.91 0.87 0.76 0.72 0.69 0.60 0.68 0.68 0.68 0.63 0.64 0.58 0.63 0.70 0.91 1.16 1.34 1.46 1.36 1.22 1.10 1.02 0.99 0.99 1.02 1.01 0.87 0.79 0.68 0.61 0.60
1.22 1.37 1.46 1.40 1.39 1.37 1.35 1.31 1.39 1.28 1.10 1.07 1.00 0.92 0.79 0.71 0.77 0.72 0.74 0.75 0.79 0.76 0.71 0.60 0.54 0.47 0.55 0.76 0.99 1.26 1.39 1.35 1.19 1.03 0.94 0.90 0.93 0.99 0.89 0.80 0.70 0.67 0.65
1.61 1.72 1.65 1.73 1.77 1.63 1.62 1.66 1.73 1.67 1.41 1.26 1.32 1.19 0.91 0.69 0.75 0.75 0.73 0.78 0.85 0.97 1.00 0.86 0.70 0.61 0.53 0.52 0.61 0.92 1.31 1.44 1.46 1.25 1.06 1.00 0.94 0.90 0.87 0.77 0.70 0.67 0.69
1.84 1.88 1.95 2.02 2.05 2.04 2.00 1.88 1.96 2.04 1.79 1.56 1.64 1.90 1.48 1.08 0.75 0.63 0.72 0.75 0.85 1.10 1.17 1.02 0.81 0.70 0.62 0.67 0.46 0.57 0.92 1.34 1.55 1.51 1.33 1.17 1.01 0.88 0.89 0.81 0.69 0.64 0.66
2.08 2.10 2.16 2.22 2.22 2.06 2.05 2.14 2.24 2.55 2.34 2.00 1.82 2.04 1.82 1.49 1.20 0.79 0.73 0.80 0.89 1.07 1.19 1.22 1.10 0.99 0.88 0.84 0.74 0.50 0.55 0.93 1.27 1.55 1.57 1.38 1.14 0.98 0.96 0.90 0.80 0.72 0.66
2.01 2.12 2.14 2.13 2.10 2.03 2.09 2.15 2.19 2.55 2.72 2.41 2.10 1.77 1.55 1.51 1.54 1.23 0.90 0.86 0.94 0.97 1.07 1.15 1.12 1.19 1.15 1.08 0.99 0.68 0.53 0.70 1.01 1.43 1.69 1.68 1.41 1.15 1.01 0.96 0.95 0.85 0.73
1.87 1.91 1.93 2.01 2.04 2.08 2.14 2.29 2.39 2.61 2.63 2.62 2.44 2.26 2.04 1.74 1.39 1.41 1.34 1.09 1.04 0.96 1.05 1.19 1.24 1.32 1.31 1.27 1.30 0.98 0.70 0.61 0.81 1.19 1.60 1.80 1.71 1.47 1.28 1.16 1.14 1.09 0.88
1.85 1.79 1.76 1.82 1.94 2.11 2.17 2.25 2.38 2.60 2.70 2.77 2.70 2.44 2.34 2.16 1.86 1.73 1.47 1.33 1.30 1.12 1.10 1.13 1.18 1.29 1.40 1.43 1.32 1.38 1.06 0.70 0.65 0.91 1.19 1.53 1.78 1.80 1.67 1.57 1.49 1.48 1.31
1.56 1.58 1.66 1.75 1.89 2.01 2.09 2.20 2.34 2.38 2.49 2.72 2.73 2.56 2.35 2.13 2.10 1.99 1.86 1.54 1.35 1.17 1.14 1.14 1.11 1.13 1.12 1.34 1.40 1.47 1.17 0.87 0.67 0.69 0.81 0.90 1.14 1.45 1.70 1.73 1.76 1.86 1.85
1.45 1.39 1.43 1.53 1.76 1.97 2.05 2.14 2.15 2.13 2.18 2.36 2.36 2.43 2.38 2.09 2.04 1.93 1.91 1.97 1.70 1.49 1.31 1.14 1.03 1.06 1.02 1.16 1.37 1.42 1.08 0.95 0.78 0.67 0.70 0.75 0.71 0.81 1.09 1.46 1.71 1.92 2.11
1.24 1.19 1.21 1.25 1.38 1.62 1.88 2.04 1.98 1.90 1.87 2.02 2.08 2.17 2.28 2.29 2.20 2.10 2.06 2.08 2.01 1.76 1.57 1.36 1.14 1.02 1.02 1.05 1.32 1.16 1.04 0.99 0.93 0.79 0.72 0.77 0.70 0.61 0.67 0.83 1.06 1.25 1.52
1.04 1.05 1.04 1.09 1.22 1.33 1.54 1.78 1.88 1.83 1.80 1.85 1.96 2.09 2.22 2.31 2.36 2.17 2.11 2.08 1.92 1.81 1.66 1.38 1.16 1.05 1.10 1.03 1.24 1.14 1.10 1.19 1.04 0.93 0.86 0.82 0.82 0.71 0.65 0.65 0.69 0.73 0.77
0.80 0.83 1.00 1.06 1.14 1.22 1.39 1.65 1.83 1.84 1.76 1.77 1.77 1.85 2.01 2.10 2.32 2.30 2.20 2.09 1.95 1.77 1.64 1.49 1.28 1.09 1.15 1.19 1.23 1.23 1.15 1.08 0.96 0.98 0.90 0.86 0.83 0.82 0.76 0.73 0.72 0.68 0.63
0.55 0.68 0.81 0.86 0.90 0.96 1.14 1.44 1.63 1.67 1.64 1.56 1.55 1.67 1.89 2.04 2.26 2.37 2.33 2.19 2.08 1.92 1.82 1.76 1.57 1.34 1.22 1.25 1.34 1.40 1.34 1.24 1.18 1.20 1.08 0.96 0.90 0.84 0.82 0.78 0.75 0.73 0.68
0.58 0.68 0.78 0.84 0.86 0.92 0.96 1.07 1.23 1.36 1.35 1.29 1.33 1.40 1.45 1.61 1.90 2.10 2.15 2.17 2.19 2.15 2.10 1.95 1.76 1.60 1.43 1.32 1.39 1.41 1.36 1.40 1.29 1.33 1.33 1.21 1.13 1.05 0.97 0.90 0.83 0.77 0.73
0.53 0.60 0.65 0.73 0.81 0.88 0.89 0.91 0.94 1.01 1.03 1.09 1.15 1.21 1.24 1.27 1.46 1.65 1.76 1.98 2.21 2.21 2.19 2.12 1.92 1.73 1.57 1.44 1.49 1.51 1.53 1.50 1.43 1.29 1.29 1.22 1.24 1.19 1.08 0.93 0.84 0.77 0.75
0.43 0.49 0.56 0.60 0.67 0.76 0.85 0.88 0.76 0.73 0.80 0.91 0.95 0.93 0.96 1.03 1.15 1.23 1.30 1.66 2.01 2.18 2.15 2.11 1.98 1.85 1.62 1.49 1.37 1.36 1.51 1.71 1.71 1.63 1.55 1.33 1.22 1.13 1.06 1.02 0.92 0.84 0.78
0.40 0.45 0.46 0.49 0.61 0.66 0.79 0.77 0.61 0.59 0.63 0.74 0.83 0.83 0.74 0.74 0.79 0.85 0.93 1.11 1.39 1.63 1.90 2.06 1.97 1.79 1.60 1.49 1.44 1.45 1.48 1.59 1.67 1.58 1.65 1.67 1.56 1.46 1.34 1.19 1.18 1.11 1.00
0.36 0.39 0.40 0.42 0.48 0.62 0.66 0.52 0.49 0.52 0.60 0.65 0.71 0.77 0.70 0.61 0.69 0.74 0.84 0.91 0.93 1.01 1.28 1.62 1.74 1.71 1.77 1.64 1.60 1.53 1.49 1.55 1.58 1.55 1.67 1.72 1.72 1.64 1.54 1.48 1.52 1.40 1.24
0.42 0.43 0.46 0.47 0.48 0.53 0.51 0.41 0.43 0.47 0.53 0.58 0.66 0.75 0.80 0.72 0.72 0.83 0.84 0.88 0.84 0.80 1.00 1.02 1.19 1.48 1.66 1.74 1.71 1.78 1.94 1.90 1.75 1.62 1.54 1.57 1.52 1.49 1.48 1.46 1.54 1.44 1.33
0.42 0.45 0.49 0.50 0.47 0.45 0.45 0.37 0.39 0.47 0.52 0.57 0.59 0.65 0.72 0.70 0.83 0.91 0.92 1.05 1.03 0.91 1.03 1.09 1.13 1.18 1.30 1.46 1.58 1.65 1.73 1.80 1.77 1.67 1.47 1.33 1.29 1.28 1.31 1.30 1.28 1.30 1.28
0.25 0.33 0.35 0.39 0.43 0.43 0.52 0.41 0.41 0.47 0.56 0.66 0.67 0.65 0.78 0.78 0.84 0.83 0.82 1.06 1.07 0.95 0.87 0.93 0.94 0.92 0.88 0.99 1.20 1.37 1.57 1.65 1.62 1.54 1.31 1.18 1.15 1.17 1.15 1.00 0.90 0.89 0.90

GEFSMA_prec_meanprecacc_162.txt.gz
Total_Precipitation_Accumulation
0.76 0.78 0.73 0.78 0.70 0.68 0.76 0.83 0.83 0.84 0.76 0.63 0.58 0.58 0.65 0.57 0.52 0.56 0.70 0.81 1.04 1.23 1.31 1.21 1.07 0.99 0.98 0.98 1.18 1.31 1.48 1.73 1.69 1.65 1.42 1.29 1.34 1.24 0.92 0.81 0.78 0.71 0.71
0.81 0.86 0.83 0.83 0.79 0.73 0.76 0.92 0.86 0.90 0.88 0.81 0.64 0.61 0.64 0.61 0.56 0.58 0.67 0.91 1.00 1.04 1.28 1.46 1.36 1.22 1.09 1.05 1.12 1.28 1.55 1.66 1.50 1.49 1.43 1.29 1.27 1.17 0.85 0.75 0.73 0.65 0.71
0.77 0.82 0.85 0.82 0.81 0.82 0.82 0.87 0.89 0.94 0.85 0.79 0.71 0.66 0.63 0.59 0.52 0.58 0.60 0.68 0.66 0.71 0.94 1.24 1.44 1.38 1.28 1.24 1.22 1.36 1.56 1.48 1.37 1.37 1.39 1.24 1.08 1.04 0.93 0.78 0.73 0.66 0.62
0.84 0.84 0.90 0.91 0.95 0.99 0.96 0.96 0.99 1.01 0.95 0.92 0.88 0.82 0.66 0.66 0.60 0.62 0.60 0.59 0.63 0.57 0.68 0.82 1.04 1.20 1.34 1.43 1.52 1.65 1.60 1.36 1.21 1.21 1.28 1.20 1.06 0.98 0.91 0.87 0.76 0.70 0.62
0.91 1.03 1.07 1.12 1.09 1.10 1.12 1.09 1.10 1.03 1.02 1.01 0.92 0.89 0.79 0.74 0.71 0.62 0.68 0.68 0.69 0.63 0.65 0.59 0.65 0.73 0.93 1.19 1.45 1.68 1.59 1.40 1.19 1.09 1.07 1.07 1.08 1.06 0.93 0.86 0.75 0.68 0.66
1.22 1.37 1.46 1.40 1.39 1.37 1.35 1.31 1.39 1.28 1.10 1.08 1.01 0.94 0.81 0.72 0.78 0.74 0.75 0.76 0.79 0.77 0.71 0.61 0.55 0.48 0.57 0.78 1.05 1.38 1.53 1.44 1.25 1.09 1.03 1.00 1.04 1.07 0.95 0.86 0.77 0.75 0.72
1.61 1.72 1.65 1.73 1.77 1.63 1.62 1.66 1.73 1.68 1.41 1.26 1.32 1.21 0.94 0.70 0.77 0.76 0.75 0.79 0.86 0.98 1.01 0.87 0.71 0.63 0.54 0.54 0.63 0.98 1.40 1.51 1.51 1.29 1.13 1.10 1.07 1.04 0.97 0.85 0.76 0.74 0.76
1.84 1.88 1.96 2.02 2.05 2.04 2.00 1.88 1.96 2.05 1.79 1.56 1.64 1.90 1.49 1.10 0.77 0.64 0.73 0.77 0.87 1.11 1.18 1.02 0.83 0.72 0.64 0.68 0.47 0.60 0.96 1.38 1.58 1.56 1.39 1.28 1.16 1.04 1.02 0.91 0.76 0.70 0.72
2.08 2.10 2.16 2.22 2.22 2.07 2.05 2.14 2.24 2.55 2.35 2.00 1.82 2.05 1.82 1.49 1.21 0.80 0.75 0.82 0.90 1.08 1.21 1.24 1.11 1.02 0.90 0.86 0.74 0.52 0.57 0.95 1.31 1.58 1.64 1.52 1.31 1.15 1.11 1.01 0.88 0.78 0.72
2.01 2.12 2.14 2.13 2.10 2.03 2.09 2.15 2.19 2.55 2.72 2.42 2.11 1.77 1.56 1.52 1.55 1.24 0.91 0.87 0.96 0.98 1.09 1.17 1.14 1.20 1.17 1.10 1.00 0.69 0.54 0.72 1.04 1.46 1.76 1.90 1.62 1.33 1.14 1.06 1.03 0.92 0.79
1.87 1.91 1.93 2.01 2.04 2.08 2.14 2.29 2.39 2.61 2.63 2.62 2.44 2.26 2.04 1.74 1.39 1.42 1.34 1.10 1.07 0.98 1.07 1.21 1.27 1.34 1.32 1.28 1.32 1.00 0.71 0.62 0.83 1.22 1.66 1.99 1.93 1.67 1.43 1.27 1.23 1.16 0.94
1.85 1.79 1.76 1.82 1.94 2.11 2.17 2.25 2.38 2.60 2.70 2.78 2.70 2.44 2.34 2.16 1.86 1.73 1.48 1.35 1.33 1.14 1.11 1.15 1.19 1.31 1.42 1.44 1.34 1.40 1.08 0.72 0.66 0.93 1.23 1.60 1.95 2.00 1.83 1.71 1.59 1.56 1.39
1.56 1.58 1.66 1.75 1.89 2.01 2.09 2.20 2.34 2.38 2.49 2.72 2.73 2.57 2.35 2.14 2.10 1.99 1.87 1.55 1.38 1.20 1.16 1.16 1.12 1.15 1.14 1.36 1.43 1.49 1.18 0.88 0.68 0.70 0.83 0.93 1.23 1.60 1.85 1.88 1.90 1.98 1.97
1.45 1.39 1.43 1.53 1.76 1.97 2.05 2.14 2.15 2.13 2.18 2.36 2.36 2.43 2.38 2.09 2.04 1.94 1.92 1.98 1.71 1.51 1.33 1.15 1.05 1.07 1.03 1.18 1.40 1.44 1.09 0.96 0.79 0.68 0.71 0.77 0.75 0.92 1.21 1.57 1.82 2.03 2.24
1.24 1.19 1.21 1.25 1.38 1.62 1.88 2.04 1.98 1.90 1.87 2.02 2.08 2.17 2.28 2.29 2.21 2.10 2.06 2.10 2.02 1.77 1.58 1.37 1.16 1.04 1.03 1.06 1.35 1.21 1.07 1.01 0.95 0.80 0.74 0.78 0.72 0.67 0.76 0.93 1.14 1.32 1.60
1.04 1.05 1.04 1.09 1.22 1.33 1.54 1.78 1.88 1.83 1.80 1.85 1.96 2.09 2.22 2.32 2.36 2.17 2.12 2.09 1.93 1.82 1.67 1.39 1.17 1.07 1.12 1.05 1.27 1.19 1.15 1.22 1.06 0.94 0.88 0.84 0.84 0.74 0.72 0.73 0.76 0.78 0.82
0.80 0.83 1.00 1.06 1.14 1.22 1.39 1.65 1.83 1.84 1.76 1.77 1.77 1.85 2.02 2.10 2.32 2.30 2.21 2.10 1.96 1.78 1.64 1.49 1.29 1.10 1.16 1.21 1.25 1.28 1.21 1.11 0.97 0.99 0.91 0.87 0.85 0.84 0.79 0.79 0.78 0.72 0.66
0.55 0.68 0.81 0.86 0.90 0.96 1.14 1.44 1.63 1.67 1.64 1.56 1.55 1.67 1.89 2.05 2.26 2.38 2.33 2.19 2.08 1.93 1.82 1.76 1.58 1.34 1.23 1.27 1.36 1.45 1.41 1.28 1.20 1.21 1.10 0.98 0.92 0.86 0.85 0.83 0.81 0.77 0.71
0.58 0.68 0.78 0.84 0.86 0.92 0.96 1.07 1.23 1.36 1.35 1.29 1.33 1.40 1.46 1.64 1.91 2.11 2.15 2.17 2.20 2.16 2.10 1.96 1.76 1.60 1.45 1.35 1.41 1.45 1.43 1.47 1.33 1.34 1.34 1.25 1.17 1.08 1.00 0.95 0.90 0.84 0.78
0.53 0.60 0.65 0.73 0.81 0.88 0.89 0.91 0.94 1.01 1.03 1.09 1.15 1.21 1.25 1.29 1.49 1.67 1.78 1.98 2.21 2.22 2.21 2.13 1.93 1.75 1.60 1.47 1.50 1.56 1.61 1.58 1.47 1.32 1.31 1.25 1.27 1.23 1.13 0.98 0.91 0.86 0.83
0.43 0.49 0.56 0.60 0.67 0.76 0.85 0.88 0.76 0.73 0.80 0.91 0.95 0.93 0.96 1.04 1.16 1.25 1.32 1.68 2.03 2.21 2.18 2.12 1.99 1.88 1.64 1.50 1.38 1.37 1.55 1.77 1.74 1.65 1.57 1.35 1.25 1.17 1.12 1.08 0.98 0.90 0.86
0.40 0.45 0.46 0.49 0.61 0.66 0.79 0.77 0.61 0.59 0.63 0.74 0.83 0.83 0.74 0.74 0.79 0.85 0.93 1.12 1.40 1.65 1.92 2.08 2.00 1.82 1.61 1.50 1.44 1.46 1.50 1.61 1.68 1.59 1.67 1.69 1.59 1.50 1.40 1.27 1.26 1.18 1.07
0.36 0.40 0.41 0.42 0.48 0.62 0.66 0.52 0.49 0.52 0.60 0.65 0.71 0.77 0.70 0.61 0.69 0.74 0.84 0.91 0.93 1.01 1.30 1.64 1.76 1.71 1.78 1.65 1.60 1.53 1.50 1.56 1.60 1.56 1.69 1.74 1.74 1.68 1.60 1.57 1.65 1.50 1.33
0.43 0.43 0.46 0.47 0.48 0.53 0.51 0.41 0.43 0.47 0.53 0.58 0.66 0.75 0.80 0.72 0.72 0.83 0.84 0.88 0.84 0.80 1.00 1.02 1.19 1.48 1.67 1.75 1.71 1.79 1.95 1.91 1.77 1.63 1.56 1.59 1.54 1.52 1.53 1.52 1.63 1.56 1.44
0.42 0.45 0.49 0.50 0.47 0.45 0.45 0.37 0.39 0.47 0.52 0.57 0.59 0.65 0.72 0.70 0.83 0.92 0.92 1.05 1.03 0.91 1.03 1.10 1.14 1.18 1.31 1.47 1.59 1.66 1.74 1.81 1.78 1.68 1.48 1.35 1.31 1.30 1.34 1.34 1.34 1.39 1.40
0.25 0.33 0.35 0.39 0.43 0.43 0.52 0.41 0.41 0.47 0.56 0.66 0.67 0.65 0.78 0.78 0.84 0.83 0.82 1.06 1.08 0.95 0.87 0.93 0.94 0.92 0.88 0.99 1.20 1.38 1.58 1.66 1.63 1.55 1.32 1.19 1.17 1.20 1.18 1.04 0.94 0.94 0.97

GEFSMA_prec_meanprecacc_168.txt.gz
Total_Precipitation_Accumulation
0.76 0.78 0.73 0.78 0.70 0.68 0.76 0.83 0.83 0.84 0.76 0.63 0.59 0.59 0.66 0.58 0.53 0.57 0.72 0.84 1.09 1.28 1.35 1.24 1.11 1.04 1.02 1.02 1.22 1.42 1.74 1.94 1.78 1.70 1.48 1.35 1.40 1.31 1.00 0.91 0.89 0.82 0.84
0.81 0.86 0.83 0.83 0.79 0.73 0.76 0.92 0.86 0.90 0.88 0.81 0.64 0.61 0.65 0.62 0.57 0.58 0.68 0.92 1.02 1.08 1.33 1.49 1.40 1.26 1.13 1.09 1.17 1.35 1.68 1.81 1.58 1.53 1.47 1.36 1.34 1.24 0.91 0.83 0.83 0.76 0.82
0.77 0.82 0.85 0.82 0.81 0.82 0.82 0.88 0.89 0.94 0.85 0.79 0.71 0.66 0.64 0.60 0.53 0.59 0.61 0.69 0.67 0.73 0.98 1.28 1.47 1.41 1.31 1.28 1.26 1.42 1.63 1.55 1.42 1.42 1.45 1.31 1.21 1.17 1.02 0.87 0.83 0.77 0.75
0.84 0.84 0.90 0.91 0.95 0.99 0.96 0.96 0.99 1.01 0.95 0.93 0.89 0.84 0.68 0.66 0.61 0.62 0.60 0.60 0.64 0.59 0.71 0.86 1.09 1.23 1.37 1.47 1.60 1.80 1.70 1.43 1.27 1.27 1.36 1.28 1.18 1.14 1.05 0.99 0.86 0.82 0.75
0.91 1.03 1.07 1.12 1.09 1.10 1.12 1.09 1.10 1.03 1.02 1.01 0.93 0.91 0.79 0.74 0.72 0.63 0.69 0.69 0.69 0.64 0.66 0.61 0.67 0.75 0.96 1.26 1.67 1.97 1.73 1.48 1.27 1.17 1.15 1.14 1.18 1.15 1.02 0.95 0.84 0.78 0.76
1.22 1.37 1.46 1.40 1.39 1.37 1.35 1.31 1.39 1.28 1.11 1.09 1.02 0.95 0.82 0.73 0.79 0.75 0.77 0.77 0.80 0.77 0.72 0.61 0.56 0.49 0.59 0.93 1.37 1.73 1.68 1.53 1.31 1.15 1.09 1.06 1.11 1.14 1.01 0.93 0.84 0.83 0.81
1.61 1.72 1.65 1.73 1.77 1.63 1.62 1.66 1.73 1.68 1.41 1.26 1.33 1.22 0.95 0.72 0.78 0.78 0.75 0.79 0.86 0.98 1.01 0.87 0.72 0.63 0.60 0.68 0.92 1.29 1.55 1.59 1.58 1.36 1.19 1.16 1.13 1.10 1.04 0.91 0.81 0.79 0.82
1.84 1.88 1.96 2.02 2.05 2.04 2.00 1.88 1.96 2.05 1.79 1.56 1.64 1.91 1.51 1.11 0.79 0.65 0.74 0.77 0.87 1.12 1.19 1.03 0.83 0.74 0.70 0.75 0.62 0.79 1.06 1.44 1.64 1.63 1.47 1.34 1.23 1.10 1.08 0.98 0.83 0.77 0.79
2.08 2.10 2.16 2.22 2.22 2.07 2.05 2.14 2.24 2.55 2.35 2.00 1.83 2.05 1.83 1.51 1.22 0.82 0.76 0.83 0.92 1.10 1.22 1.24 1.12 1.04 0.94 0.89 0.79 0.58 0.61 0.98 1.36 1.65 1.71 1.60 1.39 1.23 1.20 1.12 0.97 0.88 0.82
2.01 2.12 2.14 2.13 2.10 2.03 2.09 2.15 2.19 2.55 2.72 2.42 2.11 1.78 1.57 1.53 1.56 1.25 0.92 0.88 0.98 1.00 1.12 1.20 1.15 1.22 1.19 1.11 1.02 0.71 0.57 0.74 1.07 1.52 1.83 1.99 1.74 1.45 1.26 1.18 1.14 1.03 0.90
1.87 1.91 1.93 2.01 2.04 2.08 2.14 2.29 2.39 2.61 2.63 2.62 2.45 2.26 2.05 1.74 1.40 1.42 1.35 1.11 1.09 1.01 1.10 1.23 1.27 1.35 1.34 1.29 1.33 1.01 0.73 0.64 0.85 1.26 1.71 2.05 2.05 1.86 1.60 1.41 1.34 1.25 1.03
1.85 1.79 1.76 1.82 1.94 2.11 2.17 2.25 2.38 2.60 2.70 2.78 2.70 2.45 2.34 2.17 1.86 1.73 1.48 1.35 1.34 1.16 1.13 1.16 1.20 1.32 1.44 1.46 1.35 1.41 1.09 0.73 0.67 0.94 1.24 1.63 2.02 2.18 2.07 1.91 1.75 1.68 1.48
1.56 1.58 1.66 1.75 1.89 2.01 2.09 2.20 2.34 2.38 2.49 2.72 2.73 2.57 2.36 2.14 2.10 1.99 1.87 1.55 1.38 1.20 1.17 1.17 1.13 1.16 1.15 1.37 1.44 1.50 1.19 0.89 0.68 0.70 0.83 0.94 1.26 1.70 2.10 2.17 2.12 2.15 2.11
1.45 1.39 1.43 1.53 1.76 1.97 2.05 2.14 2.15 2.13 2.18 2.36 2.37 2.43 2.39 2.10 2.04 1.94 1.92 1.98 1.71 1.51 1.34 1.16 1.05 1.08 1.04 1.19 1.41 1.45 1.09 0.97 0.80 0.68 0.71 0.78 0.77 0.96 1.38 1.90 2.15 2.27 2.39
1.25 1.19 1.21 1.25 1.38 1.62 1.88 2.04 1.98 1.90 1.87 2.02 2.08 2.17 2.28 2.30 2.21 2.10 2.07 2.10 2.03 1.78 1.59 1.37 1.16 1.04 1.03 1.07 1.36 1.21 1.07 1.02 0.96 0.81 0.74 0.79 0.73 0.69 0.84 1.15 1.40 1.53 1.72
1.04 1.05 1.04 1.09 1.22 1.33 1.54 1.78 1.88 1.83 1.80 1.85 1.96 2.09 2.22 2.32 2.37 2.17 2.13 2.09 1.94 1.83 1.68 1.39 1.18 1.08 1.13 1.06 1.28 1.20 1.15 1.23 1.08 0.96 0.89 0.85 0.85 0.76 0.75 0.87 0.92 0.90 0.92
0.80 0.84 1.00 1.06 1.14 1.22 1.39 1.65 1.83 1.84 1.76 1.77 1.77 1.85 2.02 2.11 2.33 2.30 2.21 2.10 1.96 1.78 1.65 1.50 1.29 1.11 1.17 1.22 1.26 1.29 1.21 1.12 0.99 1.01 0.92 0.88 0.87 0.86 0.82 0.86 0.94 0.84 0.73
0.56 0.68 0.82 0.86 0.91 0.96 1.14 1.44 1.63 1.67 1.64 1.56 1.55 1.67 1.90 2.07 2.28 2.38 2.33 2.19 2.09 1.94 1.83 1.76 1.58 1.35 1.24 1.28 1.37 1.45 1.41 1.28 1.20 1.22 1.11 1.00 0.94 0.88 0.87 0.85 0.88 0.90 0.81
0.58 0.68 0.79 0.84 0.87 0.93 0.96 1.07 1.23 1.36 1.35 1.29 1.33 1.40 1.46 1.67 1.95 2.13 2.15 2.17 2.20 2.16 2.10 1.96 1.76 1.60 1.45 1.36 1.42 1.46 1.44 1.48 1.33 1.35 1.35 1.27 1.19 1.10 1.02 0.97 0.93 0.90 0.90
0.53 0.60 0.66 0.73 0.82 0.88 0.89 0.91 0.94 1.01 1.03 1.09 1.15 1.21 1.25 1.30 1.53 1.71 1.80 1.99 2.22 2.22 2.21 2.13 1.93 1.75 1.61 1.48 1.51 1.56 1.62 1.61 1.49 1.32 1.31 1.26 1.30 1.26 1.16 1.01 0.94 0.89 0.88
0.44 0.51 0.58 0.61 0.67 0.76 0.85 0.88 0.76 0.73 0.80 0.91 0.95 0.93 0.96 1.04 1.17 1.28 1.35 1.70 2.05 2.22 2.19 2.14 2.01 1.90 1.65 1.51 1.39 1.39 1.57 1.83 1.79 1.66 1.57 1.36 1.28 1.20 1.15 1.11 1.00 0.93 0.89
0.42 0.47 0.47 0.50 0.62 0.66 0.79 0.77 0.61 0.59 0.63 0.74 0.83 0.83 0.74 0.74 0.79 0.86 0.94 1.12 1.40 1.65 1.93 2.08 2.01 1.82 1.61 1.50 1.45 1.47 1.51 1.64 1.73 1.61 1.68 1.70 1.61 1.53 1.42 1.29 1.28 1.20 1.10
0.38 0.41 0.41 0.43 0.49 0.62 0.66 0.52 0.49 0.52 0.60 0.65 0.71 0.77 0.70 0.61 0.69 0.74 0.84 0.91 0.93 1.02 1.30 1.64 1.76 1.71 1.78 1.65 1.61 1.54 1.51 1.58 1.62 1.58 1.70 1.76 1.76 1.71 1.63 1.59 1.67 1.53 1.36
0.45 0.44 0.47 0.47 0.48 0.53 0.51 0.41 0.43 0.47 0.53 0.58 0.66 0.75 0.80 0.72 0.72 0.83 0.84 0.88 0.84 0.80 1.00 1.02 1.19 1.48 1.67 1.75 1.71 1.79 1.95 1.92 1.78 1.64 1.57 1.61 1.55 1.54 1.55 1.54 1.65 1.59 1.47
0.44 0.46 0.50 0.51 0.47 0.45 0.45 0.37 0.39 0.47 0.52 0.57 0.59 0.65 0.72 0.70 0.83 0.92 0.92 1.05 1.03 0.91 1.03 1.10 1.14 1.18 1.31 1.47 1.59 1.67 1.75 1.81 1.79 1.68 1.49 1.36 1.32 1.31 1.36 1.36 1.37 1.44 1.44
0.26 0.35 0.36 0.40 0.43 0.43 0.52 0.41 0.41 0.47 0.56 0.66 0.67 0.65 0.78 0.78 0.84 0.83 0.83 1.06 1.08 0.95 0.87 0.93 0.94 0.92 0.88 0.99 1.20 1.38 1.58 1.66 1.64 1.55 1.33 1.20 1.17 1.20 1.19 1.05 0.96 0.97 1.01

GEFSMA_prec_meanprecacc_174.txt.gz
Total_Precipitation_Accumulation
0.76 0.78 0.73 0.78 0.70 0.68 0.76 0.83 0.83 0.84 0.76 0.64 0.59 0.59 0.67 0.59 0.54 0.59 0.75 0.88 1.15 1.33 1.39 1.28 1.14 1.06 1.04 1.04 1.25 1.47 1.81 1.98 1.81 1.72 1.51 1.39 1.49 1.44 1.07 0.96 0.98 0.97 0.99
0.81 0.86 0.83 0.83 0.79 0.73 0.76 0.92 0.86 0.90 0.89 0.82 0.65 0.62 0.66 0.63 0.58 0.59 0.70 0.94 1.07 1.15 1.37 1.53 1.43 1.28 1.16 1.13 1.22 1.43 1.79 1.89 1.63 1.57 1.51 1.41 1.42 1.35 0.99 0.89 0.91 0.89 0.98
0.77 0.82 0.85 0.82 0.81 0.82 0.82 0.88 0.90 0.95 0.86 0.80 0.72 0.68 0.66 0.62 0.55 0.61 0.62 0.71 0.70 0.80 1.05 1.33 1.51 1.44 1.34 1.32 1.33 1.51 1.74 1.69 1.50 1.47 1.49 1.37 1.27 1.23 1.09 0.94 0.89 0.87 0.89
0.84 0.84 0.90 0.91 0.95 0.99 0.96 0.97 1.01 1.02 0.96 0.94 0.91 0.86 0.69 0.68 0.61 0.63 0.61 0.60 0.65 0.61 0.75 0.90 1.13 1.26 1.39 1.51 1.66 1.87 1.75 1.53 1.35 1.32 1.40 1.34 1.25 1.20 1.11 1.07 0.94 0.91 0.88
0.91 1.03 1.07 1.12 1.09 1.11 1.13 1.09 1.11 1.04 1.03 1.03 0.95 0.93 0.81 0.76 0.73 0.64 0.70 0.69 0.70 0.65 0.67 0.62 0.69 0.79 1.00 1.29 1.71 2.03 1.78 1.56 1.34 1.22 1.20 1.20 1.26 1.24 1.10 1.02 0.92 0.87 0.86
1.22 1.37 1.46 1.40 1.39 1.37 1.36 1.32 1.40 1.29 1.11 1.10 1.04 0.97 0.84 0.75 0.81 0.77 0.77 0.77 0.81 0.78 0.72 0.62 0.57 0.51 0.61 0.94 1.40 1.78 1.75 1.62 1.40 1.22 1.15 1.12 1.18 1.21 1.09 1.01 0.91 0.90 0.89
1.61 1.72 1.65 1.73 1.77 1.63 1.62 1.67 1.73 1.68 1.42 1.28 1.35 1.24 0.97 0.74 0.80 0.79 0.76 0.80 0.87 0.98 1.01 0.88 0.73 0.65 0.62 0.70 0.96 1.36 1.63 1.66 1.65 1.43 1.26 1.23 1.21 1.18 1.11 0.99 0.88 0.84 0.87
1.84 1.88 1.96 2.02 2.05 2.04 2.00 1.89 1.97 2.05 1.80 1.57 1.66 1.94 1.53 1.14 0.81 0.66 0.75 0.78 0.88 1.12 1.19 1.03 0.84 0.77 0.75 0.80 0.66 0.82 1.09 1.48 1.69 1.68 1.52 1.40 1.29 1.16 1.15 1.05 0.89 0.82 0.84
2.08 2.10 2.16 2.22 2.22 2.07 2.05 2.14 2.24 2.55 2.36 2.02 1.84 2.06 1.85 1.53 1.25 0.84 0.77 0.84 0.93 1.10 1.23 1.26 1.15 1.07 0.97 0.94 0.86 0.63 0.66 1.02 1.39 1.69 1.75 1.64 1.44 1.29 1.28 1.19 1.04 0.94 0.88
2.01 2.12 2.14 2.13 2.10 2.03 2.09 2.15 2.19 2.56 2.73 2.43 2.12 1.79 1.57 1.54 1.57 1.26 0.94 0.89 0.99 1.01 1.13 1.22 1.18 1.24 1.21 1.16 1.11 0.82 0.67 0.80 1.11 1.56 1.87 2.04 1.79 1.51 1.32 1.28 1.25 1.12 0.98
1.87 1.91 1.93 2.01 2.04 2.08 2.14 2.29 2.39 2.61 2.63 2.63 2.46 2.27 2.05 1.75 1.40 1.43 1.37 1.13 1.11 1.03 1.13 1.25 1.29 1.36 1.36 1.35 1.43 1.14 0.86 0.73 0.89 1.29 1.76 2.13 2.13 1.93 1.66 1.49 1.42 1.34 1.12
1.85 1.79 1.76 1.82 1.94 2.11 2.17 2.25 2.38 2.60 2.71 2.78 2.71 2.45 2.35 2.17 1.87 1.74 1.49 1.36 1.36 1.18 1.15 1.18 1.22 1.34 1.46 1.50 1.41 1.50 1.20 0.82 0.72 0.97 1.28 1.70 2.09 2.24 2.13 1.96 1.81 1.74 1.55
1.56 1.58 1.66 1.75 1.89 2.01 2.09 2.20 2.34 2.38 2.49 2.73 2.74 2.57 2.36 2.14 2.11 2.00 1.88 1.56 1.39 1.22 1.19 1.19 1.15 1.18 1.18 1.40 1.48 1.53 1.24 0.94 0.72 0.73 0.86 0.99 1.32 1.75 2.14 2.21 2.17 2.23 2.19
1.45 1.39 1.43 1.53 1.76 1.97 2.05 2.14 2.15 2.13 2.18 2.36 2.37 2.43 2.39 2.10 2.04 1.94 1.93 1.99 1.72 1.52 1.36 1.18 1.07 1.09 1.06 1.21 1.43 1.46 1.11 0.99 0.82 0.70 0.73 0.79 0.80 1.00 1.41 1.95 2.22 2.32 2.45
1.25 1.19 1.21 1.25 1.38 1.62 1.88 2.04 1.98 1.90 1.87 2.02 2.09 2.17 2.28 2.30 2.21 2.11 2.07 2.11 2.04 1.80 1.61 1.39 1.17 1.05 1.05 1.08 1.37 1.23 1.09 1.03 0.97 0.82 0.75 0.80 0.74 0.70 0.86 1.21 1.52 1.66 1.81
1.05 1.05 1.04 1.09 1.22 1.33 1.54 1.78 1.88 1.83 1.80 1.85 1.96 2.09 2.22 2.32 2.37 2.17 2.13 2.09 1.95 1.84 1.69 1.40 1.18 1.09 1.14 1.07 1.29 1.21 1.16 1.24 1.09 0.96 0.89 0.85 0.86 0.76 0.76 0.90 1.00 1.03 1.02
0.81 0.84 1.00 1.06 1.14 1.22 1.39 1.65 1.83 1.84 1.76 1.77 1.77 1.85 2.02 2.11 2.33 2.30 2.21 2.10 1.96 1.79 1.65 1.50 1.30 1.12 1.18 1.22 1.27 1.30 1.22 1.13 0.99 1.01 0.93 0.89 0.87 0.86 0.82 0.88 1.00 0.92 0.82
0.57 0.69 0.82 0.87 0.91 0.96 1.14 1.44 1.63 1.67 1.64 1.56 1.55 1.67 1.90 2.07 2.28 2.38 2.34 2.19 2.09 1.94 1.83 1.77 1.58 1.35 1.24 1.29 1.38 1.46 1.42 1.30 1.21 1.22 1.11 1.00 0.94 0.88 0.88 0.86 0.91 0.98 0.92
0.59 0.69 0.79 0.85 0.87 0.93 0.96 1.07 1.23 1.36 1.35 1.29 1.33 1.40 1.46 1.67 1.95 2.14 2.15 2.17 2.20 2.16 2.10 1.96 1.76 1.60 1.46 1.37 1.43 1.47 1.45 1.49 1.34 1.36 1.35 1.27 1.19 1.10 1.02 0.97 0.94 0.95 0.98
0.54 0.62 0.67 0.74 0.82 0.88 0.89 0.91 0.94 1.01 1.03 1.09 1.15 1.21 1.25 1.30 1.53 1.71 1.81 1.99 2.22 2.22 2.21 2.14 1.94 1.76 1.62 1.50 1.53 1.57 1.63 1.62 1.50 1.33 1.32 1.26 1.31 1.27 1.16 1.01 0.94 0.91 0.94
0.45 0.52 0.59 0.62 0.68 0.76 0.85 0.88 0.76 0.73 0.80 0.91 0.95 0.93 0.96 1.04 1.17 1.28 1.35 1.71 2.05 2.23 2.20 2.14 2.02 1.91 1.67 1.53 1.40 1.40 1.59 1.84 1.80 1.67 1.58 1.36 1.29 1.21 1.16 1.11 1.00 0.94 0.91
0.43 0.49 0.48 0.51 0.63 0.66 0.80 0.77 0.61 0.60 0.63 0.74 0.83 0.83 0.74 0.74 0.79 0.86 0.94 1.12 1.41 1.66 1.93 2.10 2.02 1.83 1.62 1.50 1.45 1.47 1.53 1.66 1.74 1.62 1.68 1.71 1.62 1.55 1.44 1.31 1.29 1.20 1.11
0.39 0.42 0.42 0.43 0.49 0.63 0.66 0.52 0.49 0.52 0.60 0.65 0.71 0.77 0.70 0.61 0.69 0.74 0.84 0.91 0.93 1.02 1.30 1.65 1.76 1.72 1.78 1.65 1.61 1.54 1.52 1.59 1.63 1.58 1.71 1.77 1.76 1.71 1.63 1.60 1.68 1.53 1.37
0.45 0.45 0.47 0.48 0.48 0.54 0.51 0.41 0.44 0.47 0.53 0.58 0.66 0.75 0.80 0.72 0.72 0.84 0.84 0.88 0.84 0.80 1.00 1.02 1.19 1.49 1.67 1.75 1.72 1.79 1.96 1.92 1.78 1.64 1.57 1.61 1.56 1.54 1.56 1.55 1.66 1.60 1.48
0.44 0.47 0.51 0.51 0.48 0.45 0.45 0.38 0.39 0.47 0.52 0.57 0.59 0.65 0.72 0.70 0.83 0.92 0.92 1.06 1.03 0.91 1.03 1.10 1.14 1.18 1.31 1.47 1.60 1.67 1.75 1.82 1.79 1.68 1.49 1.36 1.32 1.32 1.37 1.37 1.39 1.47 1.45
0.27 0.35 0.37 0.40 0.44 0.43 0.53 0.41 0.41 0.47 0.56 0.66 0.67 0.65 0.78 0.78 0.84 0.83 0.83 1.06 1.08 0.95 0.87 0.93 0.94 0.92 0.88 0.99 1.21 1.38 1.59 1.67 1.65 1.56 1.33 1.20 1.18 1.21 1.19 1.06 0.98 1.03 1.04

GEFSMA_prec_meanprecacc_180.txt.gz
Total_Precipitation_Accumulation
0.77 0.79 0.74 0.78 0.71 0.69 0.78 0.84 0.83 0.85 0.76 0.64 0.59 0.60 0.67 0.61 0.57 0.61 0.77 0.90 1.19 1.38 1.45 1.32 1.17 1.10 1.08 1.07 1.28 1.52 1.84 2.00 1.83 1.75 1.55 1.43 1.55 1.52 1.13 1.02 1.06 1.06 1.09
0.81 0.86 0.83 0.83 0.80 0.74 0.78 0.93 0.87 0.91 0.90 0.82 0.66 0.63 0.67 0.64 0.61 0.64 0.74 0.96 1.09 1.17 1.41 1.57 1.45 1.31 1.19 1.15 1.25 1.47 1.82 1.91 1.65 1.60 1.56 1.45 1.48 1.46 1.07 0.94 0.97 0.95 1.08
0.77 0.82 0.85 0.82 0.81 0.83 0.83 0.88 0.91 0.96 0.88 0.82 0.75 0.70 0.68 0.64 0.57 0.63 0.66 0.74 0.73 0.82 1.07 1.35 1.53 1.46 1.36 1.33 1.36 1.54 1.77 1.72 1.52 1.50 1.54 1.42 1.33 1.35 1.23 1.01 0.96 0.95 1.00
0.84 0.84 0.90 0.91 0.95 0.99 0.96 0.97 1.01 1.04 0.99 0.98 0.95 0.89 0.72 0.71 0.64 0.65 0.65 0.65 0.69 0.65 0.77 0.91 1.14 1.27 1.41 1.53 1.73 1.92 1.79 1.58 1.39 1.35 1.43 1.38 1.31 1.27 1.21 1.17 1.03 0.98 0.96
0.91 1.03 1.07 1.12 1.09 1.11 1.13 1.10 1.11 1.05 1.04 1.05 0.98 0.96 0.83 0.79 0.77 0.66 0.73 0.72 0.72 0.67 0.70 0.64 0.71 0.81 1.02 1.31 1.80 2.10 1.81 1.61 1.44 1.28 1.25 1.25 1.30 1.30 1.17 1.11 1.01 0.94 0.93
1.22 1.37 1.46 1.40 1.39 1.38 1.37 1.33 1.41 1.30 1.13 1.12 1.05 0.99 0.86 0.76 0.83 0.80 0.80 0.79 0.82 0.80 0.74 0.64 0.60 0.52 0.62 0.96 1.45 1.84 1.78 1.67 1.48 1.34 1.23 1.17 1.23 1.27 1.20 1.14 1.03 0.99 0.96
1.61 1.72 1.65 1.73 1.77 1.64 1.63 1.68 1.75 1.69 1.44 1.29 1.37 1.26 0.99 0.75 0.82 0.81 0.78 0.82 0.88 0.99 1.01 0.89 0.75 0.67 0.64 0.71 0.98 1.39 1.70 1.73 1.74 1.54 1.34 1.30 1.26 1.25 1.22 1.13 1.01 0.93 0.94
1.84 1.88 1.96 2.02 2.06 2.05 2.01 1.90 1.98 2.07 1.81 1.59 1.70 1.98 1.57 1.16 0.83 0.67 0.76 0.79 0.89 1.13 1.20 1.03 0.85 0.78 0.76 0.81 0.68 0.84 1.18 1.58 1.77 1.75 1.59 1.47 1.35 1.22 1.23 1.15 0.99 0.91 0.93
2.08 2.10 2.16 2.22 2.22 2.07 2.06 2.15 2.24 2.57 2.38 2.03 1.86 2.10 1.89 1.55 1.27 0.86 0.80 0.85 0.94 1.12 1.24 1.27 1.15 1.08 0.98 0.95 0.87 0.64 0.67 1.05 1.44 1.73 1.80 1.69 1.49 1.34 1.34 1.26 1.10 1.01 0.95
2.01 2.12 2.14 2.13 2.10 2.04 2.10 2.16 2.19 2.57 2.75 2.45 2.13 1.80 1.59 1.55 1.60 1.29 0.96 0.91 1.01 1.03 1.15 1.23 1.18 1.24 1.21 1.18 1.13 0.82 0.67 0.81 1.13 1.59 1.90 2.07 1.82 1.55 1.38 1.34 1.32 1.19 1.06
1.87 1.91 1.93 2.01 2.04 2.09 2.14 2.30 2.40 2.62 2.64 2.64 2.47 2.28 2.07 1.77 1.43 1.46 1.40 1.15 1.12 1.04 1.13 1.26 1.30 1.37 1.38 1.38 1.46 1.15 0.86 0.73 0.90 1.30 1.78 2.15 2.15 1.96 1.71 1.55 1.47 1.40 1.18
1.85 1.79 1.76 1.82 1.94 2.11 2.17 2.25 2.38 2.61 2.71 2.79 2.71 2.46 2.36 2.19 1.89 1.77 1.53 1.39 1.38 1.19 1.16 1.19 1.22 1.35 1.49 1.55 1.47 1.54 1.23 0.83 0.73 0.99 1.30 1.73 2.12 2.28 2.18 2.02 1.86 1.79 1.58
1.56 1.58 1.66 1.75 1.89 2.01 2.09 2.20 2.34 2.39 2.49 2.73 2.74 2.58 2.37 2.15 2.12 2.01 1.90 1.59 1.41 1.24 1.21 1.21 1.16 1.20 1.21 1.46 1.56 1.63 1.33 0.99 0.73 0.74 0.88 1.03 1.38 1.84 2.21 2.26 2.21 2.26 2.22
1.45 1.39 1.43 1.53 1.77 1.97 2.05 2.14 2.15 2.13 2.18 2.36 2.37 2.43 2.40 2.11 2.05 1.96 1.94 2.01 1.74 1.55 1.39 1.21 1.09 1.11 1.09 1.27 1.51 1.58 1.22 1.05 0.85 0.73 0.75 0.85 0.91 1.09 1.47 2.00 2.26 2.36 2.48
1.25 1.19 1.21 1.25 1.38 1.62 1.88 2.04 1.98 1.90 1.87 2.02 2.09 2.18 2.29 2.30 2.22 2.12 2.08 2.13 2.06 1.82 1.63 1.42 1.20 1.07 1.07 1.12 1.43 1.33 1.19 1.08 1.00 0.85 0.77 0.83 0.81 0.83 0.95 1.25 1.55 1.68 1.83
1.05 1.05 1.04 1.09 1.22 1.33 1.54 1.78 1.88 1.83 1.80 1.85 1.96 2.09 2.22 2.32 2.37 2.18 2.14 2.10 1.96 1.86 1.71 1.42 1.20 1.10 1.15 1.08 1.31 1.25 1.22 1.28 1.12 0.99 0.92 0.88 0.89 0.80 0.80 0.93 1.01 1.04 1.03
0.81 0.84 1.00 1.06 1.14 1.22 1.39 1.65 1.83 1.84 1.76 1.77 1.77 1.85 2.02 2.11 2.33 2.30 2.22 2.11 1.97 1.80 1.66 1.51 1.30 1.13 1.18 1.23 1.28 1.31 1.24 1.15 1.01 1.03 0.94 0.90 0.88 0.88 0.84 0.89 1.01 0.93 0.83
0.57 0.69 0.82 0.87 0.91 0.96 1.14 1.44 1.63 1.67 1.64 1.56 1.55 1.67 1.90 2.07 2.28 2.38 2.34 2.20 2.10 1.95 1.84 1.77 1.59 1.35 1.24 1.29 1.38 1.48 1.44 1.31 1.23 1.23 1.11 1.01 0.94 0.88 0.88 0.87 0.92 0.99 0.92
0.59 0.70 0.80 0.85 0.87 0.93 0.96 1.07 1.23 1.36 1.35 1.29 1.33 1.40 1.46 1.67 1.95 2.14 2.16 2.17 2.21 2.17 2.11 1.96 1.76 1.61 1.46 1.38 1.44 1.49 1.47 1.52 1.36 1.37 1.36 1.27 1.19 1.10 1.02 0.97 0.94 0.96 0.99
0.55 0.62 0.68 0.74 0.82 0.88 0.89 0.91 0.94 1.01 1.03 1.09 1.15 1.21 1.25 1.30 1.53 1.71 1.81 1.99 2.22 2.23 2.23 2.16 1.95 1.77 1.63 1.50 1.54 1.59 1.67 1.65 1.52 1.34 1.33 1.27 1.31 1.27 1.16 1.01 0.94 0.92 0.96
0.45 0.52 0.59 0.62 0.68 0.77 0.85 0.88 0.76 0.73 0.80 0.91 0.95 0.93 0.96 1.04 1.17 1.28 1.35 1.71 2.05 2.23 2.22 2.17 2.04 1.94 1.68 1.54 1.41 1.41 1.62 1.86 1.81 1.68 1.60 1.37 1.30 1.23 1.17 1.12 1.01 0.94 0.94
0.44 0.49 0.48 0.51 0.63 0.66 0.80 0.77 0.61 0.60 0.63 0.74 0.83 0.83 0.74 0.74 0.79 0.86 0.94 1.12 1.41 1.66 1.94 2.11 2.04 1.85 1.63 1.52 1.47 1.49 1.55 1.67 1.76 1.62 1.69 1.71 1.63 1.56 1.45 1.32 1.29 1.21 1.11
0.41 0.43 0.43 0.44 0.50 0.63 0.66 0.52 0.50 0.52 0.60 0.65 0.72 0.77 0.70 0.61 0.69 0.74 0.84 0.91 0.93 1.02 1.31 1.65 1.77 1.73 1.79 1.66 1.62 1.56 1.53 1.60 1.64 1.60 1.72 1.78 1.77 1.72 1.64 1.60 1.68 1.53 1.37
0.48 0.47 0.48 0.48 0.48 0.54 0.51 0.41 0.44 0.47 0.53 0.58 0.67 0.75 0.80 0.72 0.72 0.84 0.84 0.88 0.84 0.80 1.00 1.02 1.19 1.49 1.67 1.75 1.72 1.80 1.96 1.93 1.79 1.65 1.59 1.63 1.56 1.55 1.56 1.55 1.66 1.60 1.48
0.46 0.48 0.51 0.52 0.48 0.46 0.46 0.38 0.40 0.47 0.52 0.57 0.59 0.65 0.72 0.70 0.83 0.92 0.92 1.06 1.04 0.92 1.03 1.10 1.14 1.18 1.31 1.47 1.60 1.68 1.76 1.82 1.79 1.69 1.50 1.37 1.33 1.32 1.37 1.38 1.39 1.47 1.45
0.27 0.36 0.38 0.41 0.45 0.44 0.53 0.42 0.42 0.47 0.56 0.66 0.67 0.65 0.78 0.78 0.84 0.83 0.83 1.06 1.08 0.95 0.87 0.93 0.94 0.92 0.88 0.99 1.21 1.38 1.59 1.69 1.66 1.57 1.33 1.20 1.18 1.21 1.20 1.06 0.99 1.04 1.05